{"data":{"norad_id":69229,"intl_designator":"2026-115U","name":"STARLINK-37679","alt_names":[],"object_type":"PAYLOAD","status":"ACTIVE","operator":null,"country":"US","launch_date":"2026-05-26","launch_site_code":"AFWTR","launch_vehicle":null,"mission":null,"orbit_class":"UNKNOWN","rcs_meters":null,"size_class":null,"mass_kg":null,"dimensions":null,"purposes":["comms"],"wikipedia_slug":null,"has_3d_model":false,"image_url":null,"decayed_at":null,"tle_current":{"epoch":"2026-09-19T23:39:41.843808Z","epoch_age_seconds":71386,"freshness":"FRESH","line1":"1 69229U 26115U   26262.98590097  .00023610  00000+0  73077-3 0  9996","line2":"2 69229  97.2843 279.1168 0000268 346.8132  13.3104 15.33471530 19217","mean_motion":15.3347153,"eccentricity":2.68e-5,"inclination_deg":97.2843,"raan_deg":279.1168,"arg_perigee_deg":346.8132,"mean_anomaly_deg":13.3104,"bstar":0.00073077,"rev_number":1921,"period_min":93.904580021776,"perigee_km":465.28083248833,"apogee_km":465.64764951485,"semimajor_km":6843.6012410016,"source":"CELESTRAK","updated_at":"2026-09-20T09:00:44.105467Z"}}}